📊 Raw Sensor Data

Showing records 44301 to 44325 of 85,034 total

ID Distance (ft) Battery V Battery A Int Temp (°F) Int Humid (%) Ext Temp (°F) Solar V RSSI SNR Time Stamp
40746 15.5 4.05 55 59 40 61 4.50 -68 8 05/16/2025 07:30 AM
40745 15.4 3.98 11 57 40 59 4.50 -68 8 05/16/2025 07:15 AM
40744 15.5 3.99 0 55 41 58 4.50 -68 8 05/16/2025 07:00 AM
40743 15.4 3.97 7 53 41 55 4.50 -68 8 05/16/2025 06:45 AM
40742 15.4 3.96 0 52 41 57 4.50 -68 8 05/16/2025 06:30 AM
40741 15.4 3.95 0 50 42 53 4.50 -68 8 05/16/2025 06:15 AM
40740 15.3 3.88 -10 50 42 51 4.50 -67 9 05/16/2025 06:00 AM
40739 15.4 3.89 -5 50 42 51 2.00 -67 8 05/16/2025 05:45 AM
40738 15.4 3.89 -5 50 42 52 0.00 -67 7 05/16/2025 05:30 AM
40737 15.4 3.89 -5 51 42 52 0.00 -68 8 05/16/2025 05:15 AM
40736 15.4 3.89 -5 51 42 52 0.00 -67 8 05/16/2025 05:00 AM
40735 15.4 3.89 -5 51 42 52 0.00 -69 8 05/16/2025 04:45 AM
40734 15.4 3.95 -5 52 43 53 0.00 -68 8 05/16/2025 04:30 AM
40733 15.4 3.89 -5 52 43 53 0.00 -67 8 05/16/2025 04:15 AM
40732 15.4 3.88 -5 53 43 53 0.00 -68 8 05/16/2025 04:00 AM
40731 15.4 3.88 -5 54 43 54 0.00 -68 8 05/16/2025 03:45 AM
40730 15.4 3.87 -5 55 43 56 0.00 -67 8 05/16/2025 03:30 AM
40729 15.4 3.95 -5 55 43 55 0.10 -68 8 05/16/2025 03:15 AM
40728 15.4 3.88 -5 55 42 56 0.00 -69 8 05/16/2025 03:00 AM
40727 15.4 3.95 -5 55 43 57 0.00 -69 7 05/16/2025 02:45 AM
40726 15.4 3.89 -5 56 42 57 0.00 -69 7 05/16/2025 02:30 AM
40725 15.4 3.88 -5 56 42 57 0.10 -68 8 05/16/2025 02:15 AM
40724 15.4 3.95 -5 55 42 57 0.10 -68 8 05/16/2025 02:00 AM
40723 15.4 3.88 -5 55 42 57 0.00 -68 8 05/16/2025 01:45 AM
40722 15.4 3.88 -5 54 43 56 0.10 -68 8 05/16/2025 01:30 AM